Tijuana, Mexico

1:49 AM PDT on May 27, 2018 (GMT -0700)
Gen Abelardo L Rodriguez International

Weather History for MMTJ - December, 2012

Change the Weather History Date:

Wednesday, December 12, 2012

  Actual Average Record
Temperature  
Mean Temperature 55 °F -  
Max Temperature 66 °F 66 °F 84 °F (2010)
Min Temperature 44 °F 46 °F 39 °F (1999)
Degree Days  
Heating Degree Days 10    
Growing Degree Days 5 (Base 50)    
Moisture  
Dew Point 44 °F    
Average Humidity 63    
Maximum Humidity 87    
Minimum Humidity 46    
Precipitation  
Precipitation 0.05 in - - ()
Sea Level Pressure  
Sea Level Pressure 29.95 in    
Wind  
Wind Speed 3 mph ()    
Max Wind Speed 12 mph    
Max Gust Speed -    
Visibility 6.3 miles    
Events      
Averages and records for this station are not official NWS values.
T = Trace of Precipitation, MM = Missing Value Source: Averaged Metar Reports

Daily Weather History Graph

Daily Weather History Graph

Search for Another Location

Airport or City:

Astronomy

Dec. 12, 2012 Rise Set
Actual Time 6:40 AM PST 4:43 PM PST
Civil Twilight 6:13 AM PST 5:10 PM PST
Nautical Twilight 5:42 AM PST 5:40 PM PST
Astronomical Twilight 5:12 AM PST 6:10 PM PST
Moon 5:51 AM PST (12/12) 4:24 PM PST (12/12)
Length of Visible Light 10h 56m
Length of Day
10h 02m
Waning Crescent, 0% of the Moon is Illuminated
Dec 12
Waning Crescent
Dec 13
New
Dec 19
First Quarter
Dec 28
Full
Jan 4
Last Quarter

Hourly Weather History & Observations

Time (PST) Temp. Dew Point Humidity Pressure Visibility Wind Dir Wind Speed Gust Speed Precip Events Conditions
12:52 AM 48.2 °F 44.6 °F 87% 30.05 in 7.0 mi Calm Calm - N/A   Clear
1:42 AM 48.2 °F 41.0 °F 76% 30.01 in 7.0 mi Calm Calm - N/A   Clear
2:43 AM 46.4 °F 39.2 °F 76% 30.00 in 7.0 mi Calm Calm - N/A   Clear
3:53 AM 50.0 °F 32.0 °F 50% 29.99 in 7.0 mi Calm Calm - N/A   Clear
4:51 AM 44.6 °F 35.6 °F 71% 29.98 in 8.0 mi Calm Calm - N/A   Clear
5:42 AM 44.6 °F 33.8 °F 66% 29.99 in 8.0 mi Calm Calm - N/A   Clear
6:46 AM 44.6 °F 33.8 °F 66% 30.02 in 6.0 mi Calm Calm - N/A   Mostly Cloudy
7:51 AM 53.6 °F 39.2 °F 58% 30.00 in 6.0 mi NNE 5.8 mph - N/A   Mostly Cloudy
8:48 AM 55.4 °F 35.6 °F 47% 30.01 in 6.0 mi ESE 6.9 mph - N/A   Scattered Clouds
9:44 AM 59.0 °F 42.8 °F 55% 30.00 in 7.0 mi East 5.8 mph - N/A   Scattered Clouds
11:00 AM 64.4 °F 46.4 °F 52% 29.98 in 7.0 mi West 5.8 mph - N/A   Scattered Clouds
11:40 AM 66.2 °F 46.4 °F 49% 29.95 in 7.0 mi Calm Calm - N/A   Partly Cloudy
12:44 PM 66.2 °F 46.4 °F 49% 29.93 in 7.0 mi WSW 10.4 mph - N/A   Partly Cloudy
1:40 PM 66.2 °F 44.6 °F 46% 29.90 in 7.0 mi South 11.5 mph - N/A   Clear
2:43 PM 62.6 °F 48.2 °F 59% 29.92 in 7.0 mi South 11.5 mph - N/A   Scattered Clouds
3:49 PM 60.8 °F 48.2 °F 63% 29.65 in 7.0 mi SSW 9.2 mph - N/A   Mostly Cloudy
4:50 PM 59.0 °F 50.0 °F 72% 29.92 in 6.0 mi SSE 6.9 mph - N/A   Mostly Cloudy
5:45 PM 59.0 °F 50.0 °F 72% 29.92 in 6.0 mi SSE 6.9 mph - N/A   Mostly Cloudy
6:46 PM 59.0 °F 48.2 °F 67% 29.95 in 6.0 mi SSE 6.9 mph - N/A   Mostly Cloudy
7:50 PM 59.0 °F 48.2 °F 67% 29.92 in 6.0 mi SSE 9.2 mph - N/A   Mostly Cloudy
8:45 PM 59.0 °F 50.0 °F 72% 29.93 in 5.0 mi SE 6.9 mph - N/A   Light Drizzle
9:42 PM 59.0 °F 48.2 °F 67% 29.96 in 4.0 mi ESE 6.9 mph - N/A   Mostly Cloudy
10:40 PM 59.0 °F 48.2 °F 67% 29.93 in 4.0 mi ESE 11.5 mph - N/A   Overcast
11:41 PM 59.0 °F 48.2 °F 67% 29.91 in 4.0 mi ESE 8.1 mph - N/A   Overcast